Lapse_Rate
9.3 9.3 9.4 9.3 9.1 8.4 8.4 9.3 9.4 9.2 9.2 9.3 9.3 9.2 9.2 9.0 8.8 7.6 5.9 6.2 6.4 4.8 5.8 6.2 6.9 5.2 5.2 4.6 6.5 4.8 6.0 5.9 6.5 6.5 6.5 6.5 6.5 6.5 6.5 6.5 6.5 6.5 6.5 6.5 6.5 6.5 6.5 6.4 6.3 6.5 6.5 5.2 5.7 5.2
9.3 8.9 9.3 9.3 9.2 9.2 9.2 9.2 9.3 9.3 9.3 9.3 9.3 9.3 9.4 9.3 9.4 9.2 5.4 6.4 6.0 6.1 5.6 6.4 6.5 6.8 6.6 6.5 6.2 5.6 6.0 5.7 5.7 6.5 6.5 6.5 6.5 6.5 6.5 6.5 6.5 6.5 6.5 6.5 6.5 6.5 6.5 6.0 6.4 5.4 4.7 5.5 4.9 3.6
8.8 9.1 9.3 9.3 9.3 9.3 9.3 9.3 9.3 9.3 9.3 9.4 9.3 9.2 8.9 8.9 9.3 9.0 4.8 4.7 4.6 5.2 4.2 3.6 4.1 4.7 5.8 5.7 5.8 6.6 6.6 6.9 6.6 6.6 6.5 6.5 6.5 6.5 6.5 6.5 6.5 6.5 6.5 6.5 6.5 6.5 6.5 5.9 5.3 5.1 5.1 5.5 5.9 6.0
8.0 9.2 9.2 9.2 9.2 9.2 9.3 9.3 9.4 9.4 9.4 9.4 9.4 9.3 9.3 8.8 8.6 8.7 5.1 4.8 5.2 4.6 5.9 5.5 5.0 4.2 5.2 5.6 6.0 6.3 6.5 6.9 6.6 6.7 6.5 6.5 6.5 6.5 6.5 6.5 6.5 6.5 6.5 6.5 6.5 6.5 6.2 5.9 5.3 5.6 6.0 6.0 6.3 6.9
8.8 9.2 9.2 9.2 9.2 9.3 9.3 9.3 9.3 9.3 9.3 9.4 9.2 9.2 9.3 9.3 9.2 7.7 5.0 4.5 5.1 7.0 5.6 4.7 3.8 4.8 5.3 6.3 6.4 6.0 6.3 6.6 6.5 6.5 6.5 6.5 6.5 6.4 6.5 6.5 6.5 6.5 6.5 6.5 6.5 6.4 6.3 6.2 5.9 6.1 6.2 6.7 6.9 6.6
8.6 9.2 9.2 9.2 9.2 9.3 9.3 9.3 9.3 9.3 9.2 9.2 9.3 9.2 9.2 9.3 9.0 6.1 4.6 4.7 5.5 5.9 3.6 6.5 3.1 3.9 6.1 5.8 5.5 6.1 6.3 6.5 6.3 6.4 6.4 6.5 6.5 6.5 6.5 6.5 6.5 6.7 5.5 6.0 6.5 6.3 6.5 6.7 6.7 6.5 6.5 6.9 7.1 7.0
9.2 9.2 9.1 9.2 9.3 9.3 9.3 9.3 9.3 9.2 9.2 9.3 9.3 9.2 9.2 9.1 6.5 7.0 4.7 4.5 6.4 6.3 6.0 6.3 6.5 5.7 5.4 5.2 6.2 6.2 6.0 6.4 6.4 6.5 6.5 6.5 6.5 6.6 6.5 6.5 6.5 6.4 6.4 6.5 6.7 6.3 6.3 6.8 6.8 7.2 7.0 7.1 6.9 6.3
8.8 9.1 9.1 9.2 9.2 9.2 9.3 9.3 9.3 9.3 9.2 8.4 9.1 9.2 8.2 8.1 6.9 5.9 6.7 8.2 6.5 6.5 6.7 6.5 6.5 6.4 5.4 6.1 6.5 6.0 6.4 6.4 6.6 6.6 6.6 6.5 6.6 6.5 6.5 6.5 6.6 6.7 6.8 6.7 6.7 7.1 7.2 7.3 7.2 7.2 7.2 6.4 6.2 6.1
8.7 9.0 9.1 9.1 9.1 9.2 9.1 9.3 9.2 9.2 8.2 7.5 7.5 7.5 5.4 5.8 6.0 6.6 7.3 6.9 6.1 6.7 6.4 6.3 6.5 6.5 5.5 6.7 6.4 6.4 6.1 6.5 6.3 6.5 6.5 6.5 6.5 6.5 6.5 6.5 6.7 6.6 6.7 6.6 7.3 7.3 7.2 7.2 7.3 7.3 7.2 6.8 6.3 5.9
8.7 8.5 8.5 8.7 8.1 7.9 9.1 9.2 9.1 8.1 7.2 6.3 4.2 2.5 2.0 3.8 7.3 6.5 6.8 6.6 6.6 6.4 6.3 6.5 6.6 6.5 6.3 6.7 6.6 6.6 6.5 6.5 6.5 6.5 6.6 6.5 6.5 6.6 6.6 6.5 6.5 6.8 6.8 6.7 6.7 6.5 6.7 6.9 6.6 5.7 5.7 5.2 5.1 5.1
8.6 8.4 8.1 7.6 7.7 7.8 8.7 8.7 7.3 7.1 5.3 3.9 2.8 3.3 2.3 5.2 3.6 2.7 3.2 5.6 4.7 6.5 6.2 6.6 6.4 6.5 6.3 6.5 6.5 6.7 6.5 6.5 6.5 6.5 6.5 6.5 6.5 6.5 6.6 6.4 6.2 5.8 5.9 6.0 5.9 6.0 5.8 5.6 5.6 6.2 5.9 5.7 5.3 4.3
8.3 8.0 7.8 7.3 7.7 7.2 7.2 6.8 7.0 3.7 1.7 4.4 6.1 4.5 2.1 0.7 -0.2 5.9 6.5 5.8 6.5 6.5 6.4 6.5 6.5 6.7 6.7 6.3 6.5 6.5 6.5 6.5 6.5 6.5 6.5 6.5 6.5 6.6 6.5 6.3 5.9 5.4 5.3 5.5 5.6 5.6 6.2 5.7 4.0 3.3 3.4 3.4 3.6 3.8
7.9 7.5 7.2 7.3 7.2 6.6 6.4 6.5 6.6 6.7 4.9 2.2 0.5 0.4 2.5 1.9 6.5 6.5 6.5 6.5 6.5 6.6 6.4 6.6 6.5 6.9 7.1 6.9 6.5 6.5 6.5 6.5 6.1 6.5 6.5 6.5 6.6 6.6 6.2 5.8 6.0 6.0 4.9 4.5 4.4 4.2 4.0 4.2 4.3 4.0 3.9 4.0 3.9 3.7
7.1 6.9 6.7 6.9 6.3 6.3 6.1 6.2 6.2 4.6 2.1 0.2 0.8 6.5 6.5 6.5 6.5 6.5 6.5 6.5 6.6 7.0 6.7 6.8 6.7 6.6 6.5 6.5 6.5 6.5 6.5 6.5 6.5 6.5 6.5 6.5 6.7 6.3 6.5 6.7 4.3 4.8 4.6 4.5 4.6 4.3 4.0 3.8 3.8 3.9 3.9 3.8 3.5 3.1
6.7 6.3 6.4 5.4 5.8 5.9 5.7 5.6 5.3 2.1 1.4 0.9 2.3 6.5 6.5 5.9 6.8 6.6 6.6 6.8 7.2 6.8 7.0 6.7 6.3 6.5 6.5 6.5 6.5 6.5 6.5 6.5 6.5 6.5 6.5 6.7 6.2 6.1 5.7 5.3 4.8 4.6 4.4 4.1 4.2 4.1 4.1 3.7 3.0 2.8 2.9 3.0 3.1 3.2
6.4 5.2 4.6 5.4 5.8 5.7 4.9 3.2 1.6 1.1 -0.4 1.8 3.2 5.9 5.7 6.0 6.1 6.4 6.8 6.9 7.2 7.4 6.8 6.3 6.5 6.5 6.5 6.5 6.5 6.5 6.5 6.5 6.5 6.5 7.0 6.0 5.7 5.5 5.2 5.1 4.9 4.6 4.3 4.2 4.1 4.0 3.9 3.4 2.8 2.6 2.5 2.4 2.7 3.0
5.8 3.8 5.4 5.5 5.5 4.7 3.4 -0.6 -0.6 -1.9 -0.7 1.2 3.9 5.4 6.9 6.4 6.6 6.9 7.7 7.5 8.1 7.0 6.5 6.4 6.5 6.5 6.5 6.5 6.5 6.5 6.5 6.5 6.8 6.8 6.1 5.8 5.2 4.8 4.7 4.9 4.8 4.4 3.8 3.7 3.7 3.6 3.6 3.8 3.4 3.1 2.4 2.6 2.8 3.0
3.2 4.2 5.4 5.3 4.5 2.4 -0.2 -2.8 -2.1 -0.4 2.6 2.6 5.1 6.4 7.2 7.5 7.2 7.4 7.5 7.6 6.3 6.7 6.3 6.5 6.2 6.5 6.5 6.5 6.5 6.5 6.8 6.8 6.4 5.9 5.6 5.3 4.9 4.9 4.9 4.3 4.2 4.0 3.7 3.5 2.9 2.9 2.7 2.5 2.6 2.8 2.7 2.4 2.8 3.1
5.3 5.2 5.2 4.6 3.0 -2.9 -2.3 -0.8 -1.6 0.9 1.8 3.6 5.4 3.8 7.1 7.6 8.0 7.6 7.3 6.7 7.1 6.1 4.6 4.6 6.5 6.5 6.5 6.8 6.7 6.9 7.0 7.3 6.4 6.0 5.1 4.3 3.9 4.0 4.3 4.5 4.4 3.7 3.2 3.1 3.2 2.7 2.7 2.7 2.9 2.5 3.2 3.2 2.9 2.6
5.0 4.5 4.7 3.5 1.6 -3.2 -0.9 -1.0 -3.7 -1.3 1.5 4.0 3.9 3.4 6.5 7.3 7.7 7.4 6.6 6.9 5.6 5.6 6.2 6.5 6.5 7.0 7.0 6.5 6.4 7.0 7.1 6.7 6.0 5.5 5.6 4.9 4.2 3.4 3.6 3.6 3.8 4.1 3.4 3.4 3.8 5.2 3.1 3.3 3.8 4.2 5.2 4.9 2.9 3.2
2.7 3.1 2.6 0.6 -5.5 -5.4 -4.5 -5.3 -2.2 -1.9 -2.2 2.8 2.6 4.1 5.5 4.1 6.5 6.9 6.8 6.6 6.1 6.5 6.6 7.1 7.3 6.8 5.7 4.8 4.2 4.6 4.2 4.5 3.9 4.3 5.0 4.7 4.4 3.7 3.4 3.3 3.0 3.5 2.3 2.0 1.2 1.8 3.7 3.3 4.0 4.7 2.9 3.6 4.5 3.7
2.0 3.2 -2.9 -2.1 -4.1 -4.5 -2.2 -5.7 -2.0 -2.9 -1.4 -0.5 2.2 3.7 5.0 5.8 5.8 6.2 6.3 6.6 6.7 7.2 7.2 7.2 6.5 5.8 4.3 2.9 3.0 2.6 3.6 3.3 3.2 3.8 4.3 4.2 3.4 3.3 3.3 3.6 2.5 -0.0 2.0 2.1 2.3 2.8 3.3 4.0 5.8 5.6 3.6 4.0 3.8 2.9
2.4 1.0 -3.8 -4.2 -0.3 -0.8 1.7 -4.4 0.0 -2.1 4.2 1.8 -1.1 4.6 5.0 4.7 4.3 4.7 5.2 6.2 7.1 6.9 6.3 6.6 6.1 4.9 4.0 3.7 3.1 2.4 2.2 2.4 2.0 2.3 2.7 2.1 2.0 3.0 2.9 2.7 2.6 0.4 1.1 3.2 3.3 2.8 2.2 5.5 4.0 4.9 2.9 2.7 2.5 2.3
0.5 -3.3 -2.4 -2.5 -2.7 2.4 -2.4 -1.4 -1.3 -1.1 -1.7 2.9 6.4 6.5 6.0 5.1 4.8 5.7 6.5 6.1 6.9 6.2 5.0 4.9 4.8 4.2 3.4 2.4 1.8 1.7 1.5 1.7 1.3 1.2 0.9 1.5 1.9 1.2 2.1 2.5 2.8 3.5 3.6 3.4 2.3 2.1 2.5 2.6 4.8 2.6 2.4 1.4 2.1 1.6
1.5 2.0 -0.5 0.6 -3.4 1.1 6.8 5.9 3.0 4.5 6.5 6.5 6.5 6.5 4.6 4.4 6.5 6.5 6.5 6.6 6.4 4.8 4.4 3.9 3.8 3.4 1.5 1.1 2.1 1.6 1.1 0.7 -0.4 -0.8 0.0 -0.6 -1.0 -0.6 1.8 2.6 3.2 2.9 2.3 0.2 1.7 2.3 2.7 2.6 2.9 2.6 2.9 2.9 3.1 3.5
6.5 2.0 2.5 3.3 1.8 5.4 5.8 6.5 6.5 6.5 6.5 6.5 5.9 1.2 0.3 5.7 6.5 6.5 6.6 5.3 4.9 4.0 3.2 2.7 2.6 2.8 2.0 1.6 0.8 0.1 -0.2 -1.0 -1.5 -1.1 0.1 -0.2 -1.1 -1.4 -1.5 0.5 1.1 1.8 2.2 2.4 2.0 2.6 3.3 3.9 4.3 4.4 4.5 4.7 5.6 4.1
6.5 4.9 3.9 5.8 4.4 4.0 4.6 4.2 4.2 4.2 6.5 6.5 5.8 5.5 6.5 6.5 6.5 6.3 5.4 4.1 3.8 2.3 1.7 1.2 1.1 1.0 0.4 -0.1 -0.1 -0.8 -1.1 -2.5 -2.2 -1.1 -0.8 -0.7 -0.3 -0.7 0.9 1.2 1.3 2.8 3.2 3.7 3.2 3.5 4.3 4.9 4.9 5.0 4.5 4.4 4.1 3.7
4.5 3.6 6.1 2.5 2.6 1.8 4.1 4.1 6.2 6.5 5.5 4.8 5.0 6.5 6.5 6.5 6.5 4.9 3.9 2.7 1.2 -0.1 -2.1 -2.9 -2.8 -3.2 -4.2 -4.3 -5.1 -4.8 -3.9 -3.4 -5.6 -4.1 -1.8 -1.1 -1.4 -2.2 -0.3 0.2 0.8 5.0 4.5 3.3 4.1 4.4 4.7 4.9 5.5 5.3 4.9 4.3 3.9 3.4
4.9 5.3 4.5 2.0 0.0 0.5 2.1 3.1 3.5 5.0 5.3 4.0 4.1 6.3 3.4 4.8 1.9 1.5 2.8 1.5 -1.8 -3.0 -3.0 -3.7 -3.7 -6.7 -6.4 -6.5 -6.6 -6.3 -6.8 -3.4 -2.2 -1.4 -1.1 -0.8 0.4 0.9 -0.5 0.8 0.8 1.3 1.4 2.1 3.9 4.6 4.8 5.7 5.0 5.1 4.0 3.2 2.9 2.5
4.8 4.5 3.7 1.1 3.8 6.6 3.1 3.0 1.6 1.1 2.8 1.9 2.7 3.4 3.8 3.1 1.9 1.6 0.9 -0.5 -1.0 -1.9 -3.5 -5.4 -6.9 -6.8 -4.8 -4.7 -4.5 -4.3 -6.1 -5.9 -4.2 -3.5 -2.5 -1.9 -1.3 0.2 0.5 0.7 1.1 1.5 2.1 1.6 1.5 1.4 3.3 3.5 2.8 2.4 2.3 1.9 1.8 1.8
4.1 3.8 4.1 4.3 3.7 2.6 1.7 1.3 1.9 2.6 -0.6 -1.4 -1.1 1.8 2.5 0.5 1.5 0.6 -0.7 -1.9 -2.9 -4.2 -4.2 -4.4 -4.7 -6.2 -3.9 -3.5 -3.9 -3.2 -1.1 -3.1 -4.1 -3.2 -3.0 -1.2 -0.3 0.3 1.1 1.5 1.7 2.3 0.9 1.3 1.1 0.7 0.6 0.7 1.1 1.3 1.6 1.1 0.9 1.2
3.2 3.6 4.9 6.3 4.7 3.5 2.3 1.7 0.7 -0.2 -2.1 -1.5 -0.4 -2.2 -1.1 -0.2 0.9 -0.3 -2.3 -3.9 -3.4 -1.4 1.1 -1.8 -1.5 -1.1 -1.3 -1.8 -2.4 -2.3 1.4 -2.2 -2.7 -2.8 -1.9 -1.1 -0.4 1.0 2.2 3.8 3.6 0.7 -0.8 -0.0 -0.1 -0.3 -0.2 -0.5 -0.6 -0.0 1.1 0.8 0.6 0.7
1.7 2.4 2.0 3.0 4.4 4.7 3.7 2.5 1.8 0.9 -1.2 -1.5 -0.4 -1.4 -2.0 0.7 1.7 0.3 -2.9 -3.8 -2.2 -1.4 -0.0 0.6 0.5 0.2 -0.7 -1.0 -1.5 -2.4 -0.1 -2.1 -1.8 1.7 2.2 3.8 5.6 6.5 7.5 5.7 3.2 1.0 -0.2 -0.3 -0.7 -1.5 -1.3 -1.7 -1.9 -1.6 -1.1 -0.2 0.3 0.5
Wind_Speed
25 27 29 28 26 23 22 26 27 28 29 29 27 24 22 21 19 8 4 8 3 3 5 9 10 6 1 3 7 5 5 3 3 5 5 4 3 1 5 9 8 11 10 7 7 10 7 3 2 6 2 5 3 3
25 27 28 27 26 24 24 24 24 26 27 28 27 28 26 23 22 16 2 4 4 3 7 10 15 16 14 22 8 5 7 3 3 2 3 3 4 4 4 5 4 10 6 9 8 6 2 4 2 4 4 3 5 7
24 25 26 26 25 23 24 25 26 28 30 30 30 30 27 25 24 17 3 2 2 2 4 2 10 15 12 15 15 8 6 7 5 5 3 4 6 1 4 6 8 2 4 4 5 2 3 5 5 5 7 10 13 16
26 28 28 26 26 26 27 29 29 31 31 33 34 34 29 25 24 22 2 2 2 2 2 8 3 7 6 10 13 14 17 4 4 4 5 3 3 3 3 5 3 4 4 3 4 3 5 8 5 8 14 17 20 18
26 28 28 29 30 30 31 32 33 34 34 34 35 35 31 28 23 12 2 2 2 3 3 5 7 8 4 5 11 11 12 12 4 4 3 3 2 5 4 1 3 5 2 1 3 5 5 4 5 11 18 18 19 24
27 28 29 30 31 32 32 33 34 35 36 37 36 36 32 29 21 1 3 2 2 2 2 4 4 4 3 7 8 8 6 5 3 2 2 3 3 3 3 2 10 11 4 3 3 11 17 14 13 14 20 19 19 22
28 30 31 32 33 33 34 34 34 37 38 37 37 34 29 22 1 3 4 3 6 1 0 4 4 2 5 4 2 1 2 2 2 1 2 3 2 4 2 4 10 13 12 13 16 19 16 16 13 17 21 21 24 21
29 32 34 34 35 35 34 31 37 37 38 37 32 21 11 8 6 2 3 3 6 1 2 2 4 3 5 3 3 4 2 2 5 3 2 3 3 2 4 8 9 12 16 18 18 19 20 18 20 19 19 20 22 20
30 33 34 36 36 34 32 33 38 37 35 33 21 6 4 4 3 1 6 3 4 1 2 1 3 3 5 2 2 3 2 3 1 4 4 4 3 6 5 10 13 13 10 14 19 21 21 21 20 20 20 20 22 18
31 34 35 36 34 31 30 37 37 34 30 18 6 3 3 2 11 5 2 2 1 1 1 2 2 3 3 2 2 3 2 2 2 5 2 5 6 16 13 12 10 12 13 13 18 18 17 17 19 19 19 16 16 15
32 34 34 35 31 30 36 36 33 27 8 4 3 2 3 11 3 3 2 3 2 2 3 3 2 4 1 2 2 3 2 2 3 5 3 5 5 9 13 15 14 15 16 16 16 17 17 17 17 16 15 14 13 13
33 33 34 33 25 37 35 33 28 5 2 3 5 3 3 4 3 5 2 4 3 3 4 4 4 2 2 2 2 3 3 3 4 2 3 3 6 9 14 15 15 15 16 17 16 17 15 14 13 13 12 11 11 9
32 33 34 29 25 36 36 30 24 16 4 3 4 5 4 4 8 5 6 4 5 5 4 5 5 3 2 1 2 3 5 4 2 4 3 3 6 10 10 11 13 12 14 16 16 15 16 15 14 12 11 9 10 10
32 34 31 18 33 36 32 26 19 8 4 4 4 7 4 5 3 3 5 5 4 5 7 7 3 2 2 3 2 4 3 3 4 4 3 3 7 8 9 8 12 12 13 14 14 13 14 13 12 12 11 9 9 9
34 33 17 20 35 36 28 22 14 4 3 4 5 5 3 3 5 5 5 5 4 7 5 4 2 1 3 3 3 3 5 5 4 2 2 3 7 7 9 9 10 11 10 11 10 10 11 11 10 10 9 8 8 7
32 14 8 33 35 32 22 9 6 3 3 4 5 5 5 4 3 4 8 7 3 5 4 1 1 3 5 2 5 4 4 3 3 3 3 6 8 8 8 9 9 9 9 9 9 10 9 9 8 6 7 7 6 6
16 1 25 29 31 19 17 4 4 5 4 5 3 2 6 3 6 7 8 5 7 4 2 2 5 4 1 3 3 4 3 6 7 6 6 8 7 7 7 9 9 9 9 9 8 9 8 7 6 7 7 5 5 5
2 15 20 28 20 6 3 4 4 4 3 2 3 6 6 5 7 6 6 7 4 3 2 3 3 7 4 4 3 3 5 7 8 7 6 7 8 8 8 9 9 8 8 8 7 7 7 6 6 4 5 4 4 5
13 11 20 20 8 3 4 5 4 3 2 2 2 2 5 6 7 6 6 7 4 5 3 3 6 4 4 4 5 6 6 5 6 6 7 8 8 8 8 8 8 8 8 6 6 4 4 5 4 3 2 3 2 2
10 7 22 13 8 3 5 3 2 4 1 2 2 3 2 6 8 8 11 10 7 3 8 6 4 3 3 4 5 5 6 5 6 7 6 5 5 7 8 6 5 6 5 6 5 6 3 3 3 3 3 2 1 2
9 9 12 8 4 5 4 2 4 1 2 2 2 2 2 2 9 10 8 7 6 4 4 5 4 5 6 7 6 6 8 7 5 3 3 3 4 5 5 5 4 5 4 3 3 4 7 4 4 3 3 3 3 2
2 11 3 5 4 5 4 2 2 2 2 2 3 3 3 3 4 5 3 7 4 4 4 4 6 6 7 10 7 8 7 9 9 7 10 6 4 4 4 4 3 3 4 4 3 4 4 4 4 1 2 3 4 3
5 4 4 5 5 5 3 2 4 6 4 4 3 4 3 3 2 1 3 3 3 4 5 4 6 7 7 7 8 11 10 8 6 5 5 4 3 4 3 3 3 2 3 5 3 3 3 8 6 4 3 4 2 2
7 4 4 3 3 1 2 5 2 3 3 4 3 3 3 3 3 3 3 2 2 4 5 7 4 2 3 6 6 5 5 4 4 4 4 4 4 4 3 3 3 2 1 4 3 3 3 3 8 4 4 3 3 2
5 5 5 4 3 5 5 5 5 5 2 2 3 3 3 3 3 3 2 1 1 3 4 5 4 4 3 2 1 3 4 4 2 2 2 2 1 2 3 2 3 2 2 2 4 5 6 4 4 4 4 4 5 4
5 4 3 1 3 3 1 2 1 0 1 3 1 3 2 2 3 1 1 0 1 1 2 3 3 2 2 2 2 2 3 2 2 1 2 0 1 2 1 3 4 3 4 4 4 6 7 6 6 6 5 6 10 5
3 2 2 2 1 3 3 3 2 3 2 1 2 3 3 3 2 2 2 1 0 1 1 1 1 1 2 2 2 2 3 2 3 3 2 2 2 2 1 3 5 5 7 6 6 6 7 7 7 7 6 5 4 4
2 1 2 2 3 2 3 2 2 1 2 2 1 2 4 5 2 1 1 1 1 1 1 1 2 1 2 3 2 3 3 4 2 1 1 2 1 1 0 2 5 13 9 7 7 5 6 8 8 6 6 5 5 3
3 2 2 4 3 3 1 2 2 0 1 1 3 2 2 1 1 1 0 0 1 2 2 3 3 3 2 2 1 1 2 4 4 4 2 2 3 3 2 5 5 5 6 6 13 12 11 8 7 6 5 4 5 4
3 1 3 2 3 1 2 1 2 2 0 1 1 1 1 1 1 0 1 2 2 0 2 2 1 2 0 1 2 3 2 0 2 3 1 2 3 5 7 6 6 5 5 6 7 7 12 8 8 5 5 4 4 3
2 1 2 2 1 2 2 1 1 2 2 2 2 2 1 1 2 1 1 2 1 1 2 2 2 1 1 1 0 1 2 1 2 4 4 5 6 7 7 6 6 7 3 5 6 6 6 6 6 6 6 7 8 7
3 2 2 2 0 0 1 2 1 2 3 2 2 1 3 2 1 2 2 2 2 1 1 1 1 2 3 2 2 2 7 2 3 3 7 5 6 9 11 9 6 7 3 4 4 4 5 5 5 6 6 7 7 7
2 2 2 2 1 1 1 2 3 3 3 2 2 1 1 2 3 3 1 3 3 3 2 2 3 3 3 3 3 3 4 4 9 14 13 13 15 13 10 1 4 3 3 4 4 3 5 5 4 5 6 7 7 7
Wind_Direction
349 349 353 351 345 339 329 326 331 329 328 325 325 322 319 318 307 312 247 194 188 242 248 223 248 225 228 189 242 263 304 295 201 214 220 216 238 325 306 283 187 185 179 187 204 213 269 346 271 189 259 307 280 188
353 355 352 346 346 342 338 332 331 332 332 329 325 321 319 313 308 308 243 232 198 220 249 254 250 244 220 240 252 216 239 249 272 330 339 335 311 299 278 287 220 210 203 170 181 202 46 309 308 313 270 281 334 112
351 350 343 340 340 340 335 332 332 329 328 327 323 319 319 309 303 300 220 226 108 261 285 293 248 260 230 230 230 238 231 210 220 209 253 247 255 18 277 263 292 49 356 125 139 59 8 340 1 32 56 82 87 105
353 347 340 334 331 329 328 328 327 324 322 322 323 321 316 311 312 317 205 203 153 258 249 276 290 279 234 216 220 216 241 201 212 204 243 264 270 232 249 285 314 320 6 95 59 82 95 26 29 86 85 90 94 93
345 340 335 333 330 331 331 329 326 322 320 321 318 316 316 310 311 320 228 213 210 210 238 281 304 282 304 271 240 235 227 228 217 207 215 231 238 229 241 301 331 326 355 260 170 137 80 78 70 95 94 95 99 105
342 336 334 332 331 331 328 326 324 321 321 319 318 315 312 305 302 352 345 315 220 132 36 306 285 302 314 288 270 246 232 220 200 166 224 213 337 302 317 31 330 323 262 292 75 92 96 95 87 90 96 97 96 98
337 334 332 334 333 331 328 326 324 321 322 321 321 321 316 312 290 176 194 198 165 61 206 304 291 296 308 295 315 332 104 93 331 160 50 341 0 0 22 15 346 9 60 85 100 101 81 88 97 94 95 96 94 91
336 334 332 333 333 330 328 328 326 325 325 325 330 336 355 25 53 33 25 50 132 150 232 282 278 317 1 316 343 348 49 35 16 31 27 360 341 7 61 41 37 40 56 67 75 82 97 99 94 92 94 97 92 91
334 335 333 334 332 331 329 326 328 328 329 329 335 347 21 27 21 25 296 295 149 272 294 280 314 315 358 331 325 309 106 56 49 48 24 4 6 40 66 74 64 57 67 70 85 84 86 85 89 87 90 88 91 91
336 335 334 335 335 335 333 330 331 333 330 338 21 38 357 259 302 319 125 188 181 162 246 265 335 296 343 325 321 318 32 54 61 28 49 20 42 24 38 59 64 85 93 85 83 77 83 83 80 78 77 80 85 90
336 335 335 337 338 337 334 335 335 340 1 16 14 347 251 320 33 26 34 58 327 37 351 350 300 316 4 323 321 0 47 41 51 21 48 25 21 5 32 45 49 59 65 70 77 79 80 80 85 82 71 71 77 82
335 334 336 338 336 338 337 337 340 3 197 233 305 319 354 27 26 68 334 336 23 17 332 335 317 316 324 323 310 7 67 47 65 27 46 40 353 12 44 45 46 54 62 65 72 81 78 75 82 83 80 78 76 80
335 335 338 337 337 338 340 340 344 345 18 38 39 41 35 321 31 41 350 335 339 343 353 317 319 331 315 299 31 26 65 65 117 41 51 9 357 31 38 50 51 55 66 68 68 69 70 70 68 76 81 69 75 73
336 335 339 340 340 340 342 344 351 12 54 64 50 18 72 358 20 16 309 294 285 283 315 317 303 331 348 14 359 67 49 72 66 55 34 355 31 43 45 48 64 53 57 62 62 66 70 70 67 61 58 60 70 66
339 336 342 341 342 342 344 346 1 45 63 57 48 17 10 334 296 315 291 283 281 283 306 301 302 354 355 47 20 67 48 64 48 58 57 45 50 51 53 50 55 54 53 57 56 62 66 66 66 63 51 55 66 71
342 345 342 338 339 340 344 354 23 54 42 60 46 338 317 305 307 317 321 312 304 312 296 331 33 57 37 46 46 27 77 77 102 81 79 71 59 53 55 54 55 55 54 56 55 61 64 64 65 62 53 48 51 64
346 12 326 333 337 338 3 53 41 44 87 38 348 318 327 303 315 319 315 306 311 284 9 54 47 19 17 51 46 12 41 102 97 81 67 63 65 58 57 60 57 57 56 54 58 59 61 56 55 55 52 27 52 57
274 317 339 342 344 351 32 33 74 67 48 319 39 349 354 342 336 337 321 327 341 5 33 52 53 28 31 29 43 68 77 78 72 74 65 54 55 58 61 64 58 56 57 52 53 54 52 49 49 42 34 17 44 31
323 340 348 351 3 79 56 12 50 97 241 313 321 317 7 8 3 348 355 13 39 38 75 43 60 23 36 7 63 76 81 82 93 79 66 48 44 49 54 55 56 52 48 40 46 46 41 43 40 17 3 28 27 351
348 0 356 5 24 69 46 359 43 83 60 318 323 345 3 29 14 17 24 22 32 47 38 43 29 8 5 3 22 69 87 98 101 90 67 48 40 47 49 51 52 49 44 31 22 55 31 15 5 4 353 30 43 330
359 349 2 25 39 62 93 355 20 132 289 20 312 360 327 348 25 28 24 356 48 31 52 28 30 38 40 46 36 55 51 60 60 62 90 77 43 51 50 40 34 50 46 28 19 359 19 6 341 342 344 333 328 311
320 355 29 19 64 19 75 285 148 275 55 288 3 351 24 15 3 17 355 34 49 21 8 17 25 33 42 37 32 35 45 58 56 64 59 63 51 39 38 30 36 28 31 20 8 357 339 320 314 307 326 301 337 313
5 34 37 29 64 41 283 38 55 360 51 327 5 26 13 5 345 4 60 39 52 11 3 14 37 42 51 39 48 42 32 48 57 49 53 49 41 34 33 26 30 53 17 4 349 327 311 340 327 348 329 338 332 321
35 51 52 50 55 259 1 15 25 25 34 25 37 23 7 351 336 58 65 43 30 359 14 14 18 27 31 37 41 33 16 13 51 48 26 41 42 12 6 9 6 11 11 328 315 310 306 297 337 322 313 317 314 294
66 341 69 350 335 52 32 10 351 36 39 343 58 360 344 338 61 62 77 73 29 14 12 0 21 36 58 350 28 27 23 28 37 55 338 58 25 340 358 345 348 310 293 331 339 333 321 314 312 315 318 311 305 309
72 311 79 208 321 90 178 60 36 295 72 20 309 272 2 79 71 132 139 89 24 34 7 1 353 354 16 20 339 338 337 346 18 117 278 13 158 133 303 347 345 321 353 334 321 318 315 311 305 302 302 312 323 338
76 321 329 24 118 99 66 42 45 91 74 68 297 11 53 74 194 203 128 68 18 38 324 314 310 322 298 306 305 302 305 259 222 221 261 262 245 199 135 4 331 308 313 330 309 294 296 304 302 301 297 292 277 275
115 72 93 303 53 18 120 64 81 129 236 272 70 56 145 179 169 114 117 137 203 303 309 268 228 239 260 249 272 316 319 328 353 11 325 326 347 347 332 312 294 325 333 314 320 317 311 301 297 297 291 289 292 278
44 1 90 26 21 37 81 137 185 244 4 115 124 185 227 307 231 163 157 325 65 78 44 16 326 347 360 19 15 313 348 12 64 60 47 320 332 310 326 323 313 305 304 319 326 336 324 334 339 336 333 317 307 297
340 359 88 68 82 14 258 147 200 236 89 143 156 71 47 337 277 224 54 36 56 346 257 229 261 66 39 42 323 333 293 78 100 128 171 267 259 290 304 302 299 299 313 319 323 323 335 348 338 339 342 336 334 320
332 32 74 69 109 261 231 244 17 62 35 41 336 106 141 282 305 284 164 172 144 79 55 11 347 215 118 2 76 344 313 273 238 270 261 264 270 276 280 282 283 289 302 309 322 323 328 333 335 329 333 341 339 351
8 49 116 104 168 290 65 63 44 57 341 47 350 21 12 45 319 278 218 118 69 37 282 167 285 287 229 242 239 237 265 276 281 280 286 276 272 272 276 278 273 295 292 306 306 311 323 328 325 331 333 336 337 338
7 31 51 88 84 145 344 85 28 357 17 34 333 216 203 170 221 255 281 197 169 185 222 262 279 285 274 265 247 259 278 267 303 316 316 310 317 323 317 277 312 307 318 309 299 306 321 323 320 329 337 338 335 337